Time,TemperatureF,DewpointF,PressureIn,WindDirection,WindDirectionDegrees,WindSpeedMPH,WindSpeedGustMPH,Humidity,HourlyPrecipIn,Conditions,Clouds,dailyrainin,SolarRadiationWatts/m^2,SoftwareType,DateUTC
2013-10-19 00:00:00,34.0,31.0,-100.00,SE,131,0.0,2.0,90,0.00,,,0.28,0.000000,,2013-10-19 05:00:00,
2013-10-19 00:42:00,34.0,31.0,-100.00,SE,131,0.0,2.0,90,0.00,,,0.28,0.000000,,2013-10-19 05:42:00,
2013-10-19 00:52:00,34.0,31.0,-100.00,SE,131,0.0,2.0,90,0.00,,,0.28,0.000000,,2013-10-19 05:52:00,
2013-10-19 01:00:00,32.0,30.0,-100.00,SE,126,0.0,2.0,94,0.00,,,0.25,0.000000,,2013-10-19 06:00:00,
2013-10-19 01:42:00,32.0,30.0,-100.00,SE,126,0.0,2.0,94,0.00,,,0.25,0.000000,,2013-10-19 06:42:00,
2013-10-19 01:52:00,32.0,30.0,-100.00,SE,126,0.0,2.0,94,0.00,,,0.25,0.000000,,2013-10-19 06:52:00,
2013-10-19 02:00:00,35.0,31.0,-100.00,SSW,212,3.0,5.0,86,0.00,,,0.22,0.000000,,2013-10-19 07:00:00,
2013-10-19 02:42:00,35.0,31.0,-100.00,SSW,212,3.0,5.0,86,0.00,,,0.22,0.000000,,2013-10-19 07:42:00,
2013-10-19 02:53:00,35.0,31.0,-100.00,SSW,212,3.0,5.0,86,0.00,,,0.22,0.000000,,2013-10-19 07:53:00,
2013-10-19 03:00:00,35.0,33.0,-100.00,SSW,196,1.0,4.0,91,0.02,,,0.21,0.000000,,2013-10-19 08:00:00,
2013-10-19 03:22:00,35.0,33.0,-100.00,SSW,196,1.0,4.0,91,0.02,,,0.21,0.000000,,2013-10-19 08:22:00,
2013-10-19 03:32:00,35.0,33.0,-100.00,SSW,196,1.0,4.0,91,0.02,,,0.21,0.000000,,2013-10-19 08:32:00,
2013-10-19 03:42:00,35.0,33.0,-100.00,SSW,196,1.0,4.0,91,0.02,,,0.21,0.000000,,2013-10-19 08:42:00,
2013-10-19 03:52:00,35.0,33.0,-100.00,SSW,196,1.0,4.0,91,0.02,,,0.21,0.000000,,2013-10-19 08:52:00,
2013-10-19 04:00:00,35.0,33.0,-100.00,SE,139,0.0,3.0,94,0.00,,,0.20,0.000000,,2013-10-19 09:00:00,
2013-10-19 04:43:00,35.0,33.0,-100.00,SE,139,0.0,3.0,94,0.00,,,0.20,0.000000,,2013-10-19 09:43:00,
2013-10-19 04:54:00,35.0,33.0,-100.00,SE,139,0.0,3.0,94,0.00,,,0.20,0.000000,,2013-10-19 09:54:00,
2013-10-19 05:00:00,34.0,33.0,-100.00,SSE,163,1.0,3.0,95,0.00,,,0.18,0.000000,,2013-10-19 10:00:00,
2013-10-19 05:42:00,34.0,33.0,-100.00,SSE,163,1.0,3.0,95,0.00,,,0.18,0.000000,,2013-10-19 10:42:00,
2013-10-19 05:53:00,34.0,33.0,-100.00,SSE,163,1.0,3.0,95,0.00,,,0.18,0.000000,,2013-10-19 10:53:00,
2013-10-19 06:00:00,35.0,33.0,-100.00,SSE,153,1.0,5.0,94,0.01,,,0.17,0.000000,,2013-10-19 11:00:00,
2013-10-19 06:42:00,35.0,33.0,-100.00,SSE,153,1.0,5.0,94,0.01,,,0.17,0.000000,,2013-10-19 11:42:00,
2013-10-19 06:52:00,35.0,33.0,-100.00,SSE,153,1.0,5.0,94,0.01,,,0.17,0.000000,,2013-10-19 11:52:00,
2013-10-19 07:00:00,34.0,32.0,-100.00,SSE,154,2.0,4.0,94,0.00,,,0.15,0.000000,,2013-10-19 12:00:00,
2013-10-19 07:43:00,34.0,32.0,-100.00,SSE,154,2.0,4.0,94,0.00,,,0.15,0.000000,,2013-10-19 12:43:00,
2013-10-19 07:52:00,34.0,32.0,-100.00,SSE,154,2.0,4.0,94,0.00,,,0.15,0.000000,,2013-10-19 12:52:00,
2013-10-19 08:00:00,34.0,32.0,-100.00,South,178,2.0,6.0,92,0.00,,,0.14,5.000000,,2013-10-19 13:00:00,
2013-10-19 08:42:00,34.0,32.0,-100.00,South,178,2.0,6.0,92,0.00,,,0.14,5.000000,,2013-10-19 13:42:00,
2013-10-19 08:52:00,34.0,32.0,-100.00,South,178,2.0,6.0,92,0.00,,,0.14,5.000000,,2013-10-19 13:52:00,
2013-10-19 09:00:00,36.0,33.0,-100.00,SSW,203,4.0,7.0,88,0.00,,,0.12,74.000000,,2013-10-19 14:00:00,
2013-10-19 09:42:00,36.0,33.0,-100.00,SSW,203,4.0,7.0,88,0.00,,,0.12,74.000000,,2013-10-19 14:42:00,
2013-10-19 09:52:00,36.0,33.0,-100.00,SSW,203,4.0,7.0,88,0.00,,,0.12,74.000000,,2013-10-19 14:52:00,
2013-10-19 10:00:00,39.0,35.0,-100.00,SW,229,4.0,11.0,84,0.00,,,0.09,255.000000,,2013-10-19 15:00:00,
2013-10-19 10:44:00,39.0,35.0,-100.00,SW,229,4.0,11.0,84,0.00,,,0.09,255.000000,,2013-10-19 15:44:00,
2013-10-19 10:55:00,39.0,35.0,-100.00,SW,229,4.0,11.0,84,0.00,,,0.09,255.000000,,2013-10-19 15:55:00,
2013-10-19 11:00:00,40.0,35.0,-100.00,SSW,198,5.0,10.0,83,0.00,,,0.05,228.000000,,2013-10-19 16:00:00,
2013-10-19 11:24:00,40.0,35.0,-100.00,SSW,198,5.0,10.0,83,0.00,,,0.05,228.000000,,2013-10-19 16:24:00,
2013-10-19 11:33:00,40.0,35.0,-100.00,SSW,198,5.0,10.0,83,0.00,,,0.05,228.000000,,2013-10-19 16:33:00,
2013-10-19 11:43:00,40.0,35.0,-100.00,SSW,198,5.0,10.0,83,0.00,,,0.05,228.000000,,2013-10-19 16:43:00,
2013-10-19 11:53:00,40.0,35.0,-100.00,SSW,198,5.0,10.0,83,0.00,,,0.05,228.000000,,2013-10-19 16:53:00,
2013-10-19 12:00:00,41.0,34.0,-100.00,SSW,204,4.0,8.0,75,0.00,,,0.04,233.000000,,2013-10-19 17:00:00,
2013-10-19 12:43:00,41.0,34.0,-100.00,SSW,204,4.0,8.0,75,0.00,,,0.04,233.000000,,2013-10-19 17:43:00,
2013-10-19 12:52:00,41.0,34.0,-100.00,SSW,204,4.0,8.0,75,0.00,,,0.04,233.000000,,2013-10-19 17:52:00,
2013-10-19 13:00:00,42.0,35.0,-100.00,SW,218,6.0,12.0,76,0.00,,,0.04,194.000000,,2013-10-19 18:00:00,
2013-10-19 13:42:00,42.0,35.0,-100.00,SW,218,6.0,12.0,76,0.00,,,0.04,194.000000,,2013-10-19 18:42:00,
2013-10-19 13:52:00,42.0,35.0,-100.00,SW,218,6.0,12.0,76,0.00,,,0.04,194.000000,,2013-10-19 18:52:00,
2013-10-19 14:00:00,40.0,38.0,-100.00,SSW,213,2.0,13.0,92,0.04,,,0.07,139.000000,,2013-10-19 19:00:00,
2013-10-19 14:22:00,40.0,38.0,-100.00,SSW,213,2.0,13.0,92,0.04,,,0.07,139.000000,,2013-10-19 19:22:00,
2013-10-19 14:32:00,40.0,38.0,-100.00,SSW,213,2.0,13.0,92,0.04,,,0.07,139.000000,,2013-10-19 19:32:00,
2013-10-19 14:42:00,40.0,38.0,-100.00,SSW,213,2.0,13.0,92,0.04,,,0.07,139.000000,,2013-10-19 19:42:00,
2013-10-19 14:52:00,40.0,38.0,-100.00,SSW,213,2.0,13.0,92,0.04,,,0.07,139.000000,,2013-10-19 19:52:00,
2013-10-19 15:00:00,40.0,37.0,-100.00,WSW,248,5.0,11.0,88,0.03,,,0.10,226.000000,,2013-10-19 20:00:00,
2013-10-19 15:42:00,40.0,37.0,-100.00,WSW,248,5.0,11.0,88,0.03,,,0.10,226.000000,,2013-10-19 20:42:00,
2013-10-19 15:52:00,40.0,37.0,-100.00,WSW,248,5.0,11.0,88,0.03,,,0.10,226.000000,,2013-10-19 20:52:00,
2013-10-19 16:00:00,39.0,36.0,-100.00,WNW,285,5.0,12.0,90,0.01,,,0.11,216.000000,,2013-10-19 21:00:00,
2013-10-19 16:44:00,39.0,36.0,-100.00,WNW,285,5.0,12.0,90,0.01,,,0.11,216.000000,,2013-10-19 21:44:00,
2013-10-19 16:54:00,39.0,36.0,-100.00,WNW,285,5.0,12.0,90,0.01,,,0.11,216.000000,,2013-10-19 21:54:00,
2013-10-19 17:00:00,39.0,35.0,-100.00,NW,304,5.0,11.0,86,0.00,,,0.11,117.000000,,2013-10-19 22:00:00,
2013-10-19 17:43:00,39.0,35.0,-100.00,NW,304,5.0,11.0,86,0.00,,,0.11,117.000000,,2013-10-19 22:43:00,
2013-10-19 17:53:00,39.0,35.0,-100.00,NW,304,5.0,11.0,86,0.00,,,0.11,117.000000,,2013-10-19 22:53:00,
2013-10-19 18:00:00,38.0,35.0,-100.00,WNW,292,2.0,9.0,88,0.00,,,0.11,62.000000,,2013-10-19 23:00:00,
2013-10-19 18:42:00,38.0,35.0,-100.00,WNW,292,2.0,9.0,88,0.00,,,0.11,62.000000,,2013-10-19 23:42:00,
2013-10-19 18:52:00,38.0,35.0,-100.00,WNW,292,2.0,9.0,88,0.00,,,0.11,62.000000,,2013-10-19 23:52:00,
2013-10-19 19:00:00,34.0,32.0,-100.00,West,277,2.0,4.0,93,0.00,,,0.11,2.000000,,2013-10-20 00:00:00,
2013-10-19 19:23:00,34.0,32.0,-100.00,West,277,2.0,4.0,93,0.00,,,0.11,2.000000,,2013-10-20 00:23:00,
2013-10-19 19:32:00,34.0,32.0,-100.00,West,277,2.0,4.0,93,0.00,,,0.11,2.000000,,2013-10-20 00:32:00,
2013-10-19 19:42:00,34.0,32.0,-100.00,West,277,2.0,4.0,93,0.00,,,0.11,2.000000,,2013-10-20 00:42:00,
2013-10-19 19:52:00,34.0,32.0,-100.00,West,277,2.0,4.0,93,0.00,,,0.11,2.000000,,2013-10-20 00:52:00,
2013-10-19 20:00:00,33.0,32.0,-100.00,West,262,1.0,4.0,95,0.00,,,0.11,0.000000,,2013-10-20 01:00:00,
2013-10-19 20:42:00,33.0,32.0,-100.00,West,262,1.0,4.0,95,0.00,,,0.11,0.000000,,2013-10-20 01:42:00,
2013-10-19 20:52:00,33.0,32.0,-100.00,West,262,1.0,4.0,95,0.00,,,0.11,0.000000,,2013-10-20 01:52:00,
2013-10-19 21:00:00,34.0,33.0,-100.00,WNW,290,0.0,4.0,95,0.00,,,0.11,0.000000,,2013-10-20 02:00:00,
2013-10-19 21:42:00,34.0,33.0,-100.00,WNW,290,0.0,4.0,95,0.00,,,0.11,0.000000,,2013-10-20 02:42:00,
2013-10-19 21:52:00,34.0,33.0,-100.00,WNW,290,0.0,4.0,95,0.00,,,0.11,0.000000,,2013-10-20 02:52:00,
2013-10-19 22:00:00,-999.0,-99.9,-100.00,WSW,240,2.0,3.0,-999,-99.99,,,-99.99,0.000000,,2013-10-20 03:00:00,
2013-10-19 22:44:00,33.0,31.0,-100.00,WSW,240,2.0,3.0,94,0.00,,,0.11,0.000000,,2013-10-20 03:44:00,
2013-10-19 22:55:00,33.0,31.0,-100.00,WSW,240,2.0,3.0,94,0.00,,,0.11,0.000000,,2013-10-20 03:55:00,
2013-10-19 23:00:00,31.0,30.0,-100.00,SW,235,2.0,3.0,95,0.00,,,0.11,0.000000,,2013-10-20 04:00:00,
2013-10-19 23:44:00,31.0,30.0,-100.00,SW,235,2.0,3.0,95,0.00,,,0.11,0.000000,,2013-10-20 04:44:00,
2013-10-19 23:54:00,31.0,30.0,-100.00,SW,235,2.0,3.0,95,0.00,,,0.11,0.000000,,2013-10-20 04:54:00,